{"data":{"norad_id":63030,"epoch":"2026-09-21T21:19:51.204576Z","epoch_age_seconds":45392,"freshness":"FRESH","line1":"1 63030U 25034B   26264.88878709  .00017506  00000+0  52809-3 0  9996","line2":"2 63030  53.1586  76.9004 0000814  83.9173 276.1923 15.34396368 88983","mean_motion":15.34396368,"eccentricity":8.14e-5,"inclination_deg":53.1586,"raan_deg":76.9004,"arg_perigee_deg":83.9173,"mean_anomaly_deg":276.1923,"bstar":0.00052809,"rev_number":8898,"period_min":93.847980224103,"perigee_km":462.15719002353,"apogee_km":463.27088057208,"semimajor_km":6840.8510352978,"source":"CELESTRAK","updated_at":"2026-09-22T09:00:49.743360Z"}}